Flag for Colombia Weather past 2 weeks in Medellin, Colombia

Now
72 °F

Broken clouds.


Feels Like: 77 °F
Forecast: 60 / 88 °F
Wind: 18 mph from Southeast

Location: Rionegro / J. M. Cordova

Current Time: Jul 24, 2014 at 12:55:34 PM

Latest Report: Jul 24, 2014 at 12:00 PM


Visibility: N/A

Pressure: 30.27 "Hg

Humidity: 47%

Dew point: 50 °F

Location of MedellinLocation

Historic Weather in Medellin — Graph

°F

Medellin temperature yesterday

Maximum temperature yesterday: 73 °F (at 2:00 PM)
Minimum temperature yesterday: 55 °F (at 4:00 AM)
Average temperature yesterday: 65 °F

Past Weeks' High & Low Weather Summary

 TemperatureHumidityPressure
High75 °F (Jul 19, 2:00 PM)100% (Jul 10, 3:00 AM)30.38 "Hg (Jul 10, 3:00 AM)
Low48 °F (Jul 17, 5:00 AM)36% (Jul 17, 12:00 PM)30.19 "Hg (Jul 11, 4:00 PM)
Average63 °F73%30.29 "Hg
* Reported Jul 9 11:00 AM — Jul 24 11:00 AM, Medellin, Weather by CustomWeather, © 2014

Note: Actual official high and low records may vary slightly from our data, if they occured in-between our weather recording intervals... More about our weather records

Advertising

Medellin weather history for previous 24 hours

 ConditionsComfort  
Time TempWeatherWind HumidityBarometerVisibility
11:00 AM
Jul 24
72 °FBroken clouds.10 mph47%30.27 "HgN/A
10:00 AM68 °FOvercast.9 mph60%30.29 "HgN/A
9:00 AM64 °FOvercast.5 mph68%30.29 "HgN/A
8:00 AM59 °FPartly sunny.2 mph82%30.29 "HgN/A
7:00 AM52 °FClear.No wind94%30.29 "HgN/A
6:00 AM54 °FScattered clouds.No wind94%30.28 "HgN/A
5:00 AM54 °FPassing clouds.No wind88%30.26 "HgN/A
4:00 AM55 °FPartly cloudy.No wind94%30.25 "HgN/A
3:00 AM55 °FPassing clouds.No wind94%30.22 "HgN/A
2:00 AM59 °FPassing clouds.No wind94%30.25 "HgN/A
1:00 AM61 °FPassing clouds.No wind88%30.25 "HgN/A
12:00 AM61 °FPartly cloudy.5 mph83%30.27 "HgN/A
11:00 PM
Jul 23
63 °FPassing clouds.5 mph77%30.29 "HgN/A
10:00 PM63 °FPassing clouds.5 mph83%30.28 "HgN/A
9:00 PM63 °FPassing clouds.5 mph83%30.27 "HgN/A
8:00 PM64 °FPassing clouds.6 mph73%30.25 "HgN/A
7:00 PM66 °FPassing clouds.7 mph64%30.23 "HgN/A
6:00 PM68 °FScattered clouds.9 mph64%30.20 "HgN/A
5:00 PM70 °FPartly sunny.13 mph53%30.19 "HgN/A
4:00 PM72 °FScattered clouds.10 mph50%30.19 "HgN/A
3:00 PM73 °FScattered clouds.17 mph47%30.22 "HgN/A
2:00 PM73 °FScattered clouds.15 mph47%30.24 "HgN/A
1:00 PM72 °FScattered clouds.15 mph47%30.25 "HgN/A
12:00 PM72 °FScattered clouds.No wind47%30.27 "HgN/A
Weather by CustomWeather, © 2014

See weather overviewHow to use our weather pages